Live-Position
3D-Globus wird geladen...
Über Starlink 5088
Group: 3 satellites
Beschreibung wird geladen...
Nächste Überflüge
Passes for default location (London). Set your location on the main map for personalized predictions.
Höhenverlauf
Loading altitude history...
No altitude history available
Zweizeiliger Elementsatz
1 54000U 22125AN 26106.20429538 -.00000021 00000-0 16774-4 0 9992
2 54000 53.2197 35.8974 0001541 87.5042 272.6126 15.08834145195269
Epoch: 16. Apr. 2026 •
Age: 11 hours
Aktueller Status
Höhe 548.4 km
Geschwindigkeit 7.59 km/s
Subsatellitenpunkt -27.20°S,
71.6°W
Startdatum 5. Okt. 2022
Alter 3.5 years
Typ internet
Startgruppe
Falcon 9 •
Group 4-29 •
44 satellites
Starlink 4633
53964
Starlink 4578 53965
Starlink 4635 53966
Starlink 4634 53967
Starlink 4629 53968
Starlink 4468 53969
Starlink 4567 53970
Starlink 5156 53973
Starlink 5159 53974
Starlink 5137 53975
Starlink 5134 53976
Starlink 5094 53977
Starlink 5148 53978
Starlink 5123 53979
Starlink 5133 53980
Starlink 5149 53981
Starlink 5120 53982
Starlink 5142 53984
Starlink 5147 53985
Starlink 5119 53986
...and 23 more
Technische Details
Klassifizierung Payload
Masse 305.00 kg
Trockenmasse 290.00 kg
Gesamtmasse 305.00 kg
Länge 0.20 m
Durchmesser 2.80 m
Spannweite 9.00 m
Form Box + pan
Hersteller SPXS
Bus-Typ Starlink
Phasenstatus In Orbit
Besitzer/Staat SPXS/US
Most Searched
Loading...